sat.trackr.live / text

‹ back to catalog

UNKNOWN

NORAD 85237

UNKNOWN UNKNOWN UNKNOWN

§ Identity

Operator
Country
Launch date
Launch site
Launch vehicle
Mass (kg)
RCS (m²)

External: N2YO · Heavens-Above

§ Orbital elements

Epoch: 2026-09-02T23:33:27.208224Z

Period
102.60 min
Inclination
65.5305°
Eccentricity
0.0520060
Mean motion
14.03468329 rev/d
Perigee alt
504.2 km
Apogee alt
1,259.4 km
Semi-major
7,259.9 km
B*
4.0258e-4
RAAN
239.5600°
Arg perigee
268.5608°
Mean anomaly
85.5863°
Rev number
64,540

§ Raw data

UNKNOWN1 85237U          26245.98156491  .00002026  00000+0  40258-3 0  99982 85237  65.5305 239.5600 0520060 268.5608  85.5863 14.03468329645408

JSON: /api/v1/satellites/85237 · /tle

For live sub-satellite position, see the globe view (requires WebGL).

§ Visibility from observer

Set your observer location to see the next 7 days of passes ≥ 10°. The values pass through the URL so the page stays shareable.

No JS? Fill the form by hand. The geolocation button needs JavaScript.